Time,TemperatureF,DewpointF,PressureIn,WindDirection,WindDirectionDegrees,WindSpeedMPH,WindSpeedGustMPH,Humidity,HourlyPrecipIn,Conditions,Clouds,dailyrainin,SoftwareType,DateUTC
2013-11-21 00:02:00,41.0,37.0,-100.00,SSW,201,4.0,14.0,86,0.00,,,0.14,,2013-11-21 07:02:00,
2013-11-21 00:11:00,41.0,37.0,-100.00,SSW,201,4.0,14.0,86,0.00,,,0.14,,2013-11-21 07:11:00,
2013-11-21 00:42:00,41.0,37.0,-100.00,SW,233,3.0,11.0,87,0.00,,,0.14,,2013-11-21 07:42:00,
2013-11-21 00:52:00,41.0,37.0,-100.00,SW,233,3.0,11.0,87,0.00,,,0.14,,2013-11-21 07:52:00,
2013-11-21 01:01:00,41.0,37.0,-100.00,SW,233,3.0,11.0,87,0.00,,,0.14,,2013-11-21 08:01:00,
2013-11-21 01:12:00,41.0,37.0,-100.00,SW,233,3.0,11.0,87,0.00,,,0.14,,2013-11-21 08:12:00,
2013-11-21 01:42:00,41.0,37.0,-100.00,WSW,253,4.0,10.0,86,0.00,,,0.14,,2013-11-21 08:42:00,
2013-11-21 01:52:00,41.0,37.0,-100.00,WSW,253,4.0,10.0,86,0.00,,,0.14,,2013-11-21 08:52:00,
2013-11-21 02:02:00,41.0,37.0,-100.00,WSW,253,4.0,10.0,86,0.00,,,0.14,,2013-11-21 09:02:00,
2013-11-21 02:11:00,41.0,37.0,-100.00,WSW,253,4.0,10.0,86,0.00,,,0.14,,2013-11-21 09:11:00,
2013-11-21 02:43:00,40.0,36.0,-100.00,WSW,252,4.0,9.0,84,0.00,,,0.14,,2013-11-21 09:43:00,
2013-11-21 02:53:00,40.0,36.0,-100.00,WSW,252,4.0,9.0,84,0.00,,,0.14,,2013-11-21 09:53:00,
2013-11-21 03:03:00,40.0,36.0,-100.00,WSW,252,4.0,9.0,84,0.00,,,0.14,,2013-11-21 10:03:00,
2013-11-21 03:13:00,40.0,36.0,-100.00,WSW,252,4.0,9.0,84,0.00,,,0.14,,2013-11-21 10:13:00,
2013-11-21 03:42:00,40.0,36.0,-100.00,SW,229,2.0,9.0,86,0.00,,,0.14,,2013-11-21 10:42:00,
2013-11-21 03:53:00,40.0,36.0,-100.00,SW,229,2.0,9.0,86,0.00,,,0.14,,2013-11-21 10:53:00,
2013-11-21 04:03:00,40.0,36.0,-100.00,SW,229,2.0,9.0,86,0.00,,,0.14,,2013-11-21 11:03:00,
2013-11-21 04:12:00,40.0,36.0,-100.00,SW,229,2.0,9.0,86,0.00,,,0.14,,2013-11-21 11:12:00,
2013-11-21 04:43:00,40.0,36.0,-100.00,South,191,4.0,9.0,87,0.00,,,0.14,,2013-11-21 11:43:00,
2013-11-21 04:52:00,40.0,36.0,-100.00,South,191,4.0,9.0,87,0.00,,,0.14,,2013-11-21 11:52:00,
2013-11-21 05:02:00,40.0,36.0,-100.00,South,191,4.0,9.0,87,0.00,,,0.14,,2013-11-21 12:02:00,
2013-11-21 05:11:00,40.0,36.0,-100.00,South,191,4.0,9.0,87,0.00,,,0.14,,2013-11-21 12:11:00,
2013-11-21 05:42:00,40.0,36.0,-100.00,West,273,2.0,9.0,84,0.00,,,0.14,,2013-11-21 12:42:00,
2013-11-21 05:52:00,40.0,36.0,-100.00,West,273,2.0,9.0,84,0.00,,,0.14,,2013-11-21 12:52:00,
2013-11-21 06:01:00,40.0,36.0,-100.00,West,273,2.0,9.0,84,0.00,,,0.14,,2013-11-21 13:01:00,
2013-11-21 06:11:00,40.0,36.0,-100.00,West,273,2.0,9.0,84,0.00,,,0.14,,2013-11-21 13:11:00,
2013-11-21 06:42:00,40.0,36.0,-100.00,SSE,155,5.0,11.0,85,0.00,,,-99.99,,2013-11-21 13:42:00,
2013-11-21 06:52:00,40.0,36.0,-100.00,SSE,155,5.0,11.0,85,0.00,,,-99.99,,2013-11-21 13:52:00,
2013-11-21 07:02:00,40.0,36.0,-100.00,SSE,155,5.0,11.0,85,0.00,,,-99.99,,2013-11-21 14:02:00,
2013-11-21 07:11:00,40.0,36.0,-100.00,SSE,155,5.0,11.0,85,0.00,,,-99.99,,2013-11-21 14:11:00,
2013-11-21 07:42:00,40.0,36.0,-100.00,South,177,6.0,12.0,84,0.00,,,0.14,,2013-11-21 14:42:00,
2013-11-21 07:52:00,40.0,36.0,-100.00,South,177,6.0,12.0,84,0.00,,,0.14,,2013-11-21 14:52:00,
2013-11-21 08:02:00,40.0,36.0,-100.00,South,177,6.0,12.0,84,0.00,,,0.14,,2013-11-21 15:02:00,
2013-11-21 08:12:00,40.0,36.0,-100.00,South,177,6.0,12.0,84,0.00,,,0.14,,2013-11-21 15:12:00,
2013-11-21 08:44:00,41.0,35.0,-100.00,SSE,167,5.0,15.0,80,0.00,,,0.14,,2013-11-21 15:44:00,
2013-11-21 08:53:00,41.0,35.0,-100.00,SSE,167,5.0,15.0,80,0.00,,,0.14,,2013-11-21 15:53:00,
2013-11-21 09:03:00,41.0,35.0,-100.00,SSE,167,5.0,15.0,80,0.00,,,0.14,,2013-11-21 16:03:00,
2013-11-21 09:13:00,41.0,35.0,-100.00,SSE,167,5.0,15.0,80,0.00,,,0.14,,2013-11-21 16:13:00,
2013-11-21 09:42:00,42.0,37.0,-100.00,South,181,6.0,11.0,83,0.00,,,0.14,,2013-11-21 16:42:00,
2013-11-21 09:53:00,42.0,37.0,-100.00,South,181,6.0,11.0,83,0.00,,,0.14,,2013-11-21 16:53:00,
2013-11-21 10:03:00,42.0,37.0,-100.00,South,181,6.0,11.0,83,0.00,,,0.14,,2013-11-21 17:03:00,
2013-11-21 10:12:00,42.0,37.0,-100.00,South,181,6.0,11.0,83,0.00,,,0.14,,2013-11-21 17:12:00,
2013-11-21 10:42:00,43.0,37.0,-100.00,South,184,5.0,12.0,80,0.00,,,0.14,,2013-11-21 17:42:00,
2013-11-21 10:52:00,43.0,37.0,-100.00,South,184,5.0,12.0,80,0.00,,,0.14,,2013-11-21 17:52:00,
2013-11-21 11:02:00,43.0,37.0,-100.00,South,184,5.0,12.0,80,0.00,,,0.14,,2013-11-21 18:02:00,
2013-11-21 11:12:00,43.0,37.0,-100.00,South,184,5.0,12.0,80,0.00,,,0.14,,2013-11-21 18:12:00,
2013-11-21 11:42:00,44.0,39.0,-100.00,South,174,6.0,15.0,81,0.00,,,0.14,,2013-11-21 18:42:00,
2013-11-21 11:52:00,44.0,39.0,-100.00,South,174,6.0,15.0,81,0.00,,,0.14,,2013-11-21 18:52:00,
2013-11-21 12:02:00,44.0,39.0,-100.00,South,174,6.0,15.0,81,0.00,,,0.14,,2013-11-21 19:02:00,
2013-11-21 12:12:00,44.0,39.0,-100.00,South,174,6.0,15.0,81,0.00,,,0.14,,2013-11-21 19:12:00,
2013-11-21 12:42:00,42.0,38.0,-100.00,South,183,5.0,17.0,85,0.03,,,0.12,,2013-11-21 19:42:00,
2013-11-21 12:52:00,42.0,38.0,-100.00,South,183,5.0,17.0,85,0.03,,,0.12,,2013-11-21 19:52:00,
2013-11-21 13:02:00,42.0,38.0,-100.00,South,183,5.0,17.0,85,0.03,,,0.12,,2013-11-21 20:02:00,
2013-11-21 13:12:00,42.0,38.0,-100.00,South,183,5.0,17.0,85,0.03,,,0.12,,2013-11-21 20:12:00,
2013-11-21 13:42:00,42.0,38.0,-100.00,SSW,196,4.0,16.0,86,0.03,,,-99.99,,2013-11-21 20:42:00,
2013-11-21 13:52:00,42.0,38.0,-100.00,SSW,196,4.0,16.0,86,0.03,,,-99.99,,2013-11-21 20:52:00,
2013-11-21 14:02:00,42.0,38.0,-100.00,SSW,196,4.0,16.0,86,0.03,,,-99.99,,2013-11-21 21:02:00,
2013-11-21 14:11:00,42.0,38.0,-100.00,SSW,196,4.0,16.0,86,0.03,,,-99.99,,2013-11-21 21:11:00,
2013-11-21 14:43:00,42.0,39.0,-100.00,South,171,6.0,13.0,88,0.04,,,0.12,,2013-11-21 21:43:00,
2013-11-21 14:54:00,42.0,39.0,-100.00,South,171,6.0,13.0,88,0.04,,,0.12,,2013-11-21 21:54:00,
2013-11-21 15:03:00,42.0,39.0,-100.00,South,171,6.0,13.0,88,0.04,,,0.12,,2013-11-21 22:03:00,
2013-11-21 15:13:00,42.0,39.0,-100.00,South,171,6.0,13.0,88,0.04,,,0.12,,2013-11-21 22:13:00,
2013-11-21 15:43:00,42.0,38.0,-100.00,South,180,5.0,16.0,84,0.03,,,0.13,,2013-11-21 22:43:00,
2013-11-21 15:53:00,42.0,38.0,-100.00,South,180,5.0,16.0,84,0.03,,,0.13,,2013-11-21 22:53:00,
2013-11-21 16:02:00,42.0,38.0,-100.00,South,180,5.0,16.0,84,0.03,,,0.13,,2013-11-21 23:02:00,
2013-11-21 16:12:00,42.0,38.0,-100.00,South,180,5.0,16.0,84,0.03,,,0.13,,2013-11-21 23:12:00,
2013-11-21 16:42:00,41.0,37.0,-100.00,South,176,9.0,19.0,87,0.00,,,0.13,,2013-11-21 23:42:00,
2013-11-21 16:53:00,41.0,37.0,-100.00,South,176,9.0,19.0,87,0.00,,,0.13,,2013-11-21 23:53:00,
2013-11-21 17:02:00,41.0,37.0,-100.00,South,176,9.0,19.0,87,0.00,,,0.13,,2013-11-22 00:02:00,
2013-11-21 17:11:00,41.0,37.0,-100.00,South,176,9.0,19.0,87,0.00,,,0.13,,2013-11-22 00:11:00,
2013-11-21 17:42:00,40.0,36.0,-100.00,SSE,161,6.0,21.0,86,0.02,,,0.15,,2013-11-22 00:42:00,
2013-11-21 17:52:00,40.0,36.0,-100.00,SSE,161,6.0,21.0,86,0.02,,,0.15,,2013-11-22 00:52:00,
2013-11-21 18:01:00,40.0,36.0,-100.00,SSE,161,6.0,21.0,86,0.02,,,0.15,,2013-11-22 01:01:00,
2013-11-21 18:12:00,40.0,36.0,-100.00,SSE,161,6.0,21.0,86,0.02,,,0.15,,2013-11-22 01:12:00,
2013-11-21 18:42:00,40.0,37.0,-100.00,SSE,154,6.0,13.0,90,0.02,,,0.17,,2013-11-22 01:42:00,
2013-11-21 18:52:00,40.0,37.0,-100.00,SSE,154,6.0,13.0,90,0.02,,,0.17,,2013-11-22 01:52:00,
2013-11-21 19:02:00,40.0,37.0,-100.00,SSE,154,6.0,13.0,90,0.02,,,0.17,,2013-11-22 02:02:00,
2013-11-21 19:11:00,40.0,37.0,-100.00,SSE,154,6.0,13.0,90,0.02,,,0.17,,2013-11-22 02:11:00,
2013-11-21 19:42:00,41.0,37.0,-100.00,SSE,157,10.0,19.0,86,0.02,,,0.19,,2013-11-22 02:42:00,
2013-11-21 19:53:00,41.0,37.0,-100.00,SSE,157,10.0,19.0,86,0.02,,,0.19,,2013-11-22 02:53:00,
2013-11-21 20:02:00,41.0,37.0,-100.00,SSE,157,10.0,19.0,86,0.02,,,0.19,,2013-11-22 03:02:00,
2013-11-21 20:11:00,41.0,37.0,-100.00,SSE,157,10.0,19.0,86,0.02,,,0.19,,2013-11-22 03:11:00,
2013-11-21 20:43:00,41.0,36.0,-100.00,SSE,156,8.0,24.0,81,0.00,,,0.19,,2013-11-22 03:43:00,
2013-11-21 20:54:00,41.0,36.0,-100.00,SSE,156,8.0,24.0,81,0.00,,,0.19,,2013-11-22 03:54:00,
2013-11-21 21:02:00,41.0,36.0,-100.00,SSE,156,8.0,24.0,81,0.00,,,0.19,,2013-11-22 04:02:00,
2013-11-21 21:13:00,41.0,36.0,-100.00,SSE,156,8.0,24.0,81,0.00,,,0.19,,2013-11-22 04:13:00,
2013-11-21 21:43:00,41.0,36.0,-100.00,SSE,152,7.0,15.0,82,0.00,,,0.19,,2013-11-22 04:43:00,
2013-11-21 21:53:00,41.0,36.0,-100.00,SSE,152,7.0,15.0,82,0.00,,,0.19,,2013-11-22 04:53:00,
2013-11-21 22:02:00,41.0,36.0,-100.00,SSE,152,7.0,15.0,82,0.00,,,0.19,,2013-11-22 05:02:00,
2013-11-21 22:12:00,41.0,36.0,-100.00,SSE,152,7.0,15.0,82,0.00,,,0.19,,2013-11-22 05:12:00,
2013-11-21 22:43:00,39.0,31.0,-100.00,SSE,154,6.0,15.0,73,0.00,,,0.19,,2013-11-22 05:43:00,
2013-11-21 22:53:00,39.0,31.0,-100.00,SSE,154,6.0,15.0,73,0.00,,,0.19,,2013-11-22 05:53:00,
2013-11-21 23:02:00,39.0,31.0,-100.00,SSE,154,6.0,15.0,73,0.00,,,0.19,,2013-11-22 06:02:00,
2013-11-21 23:12:00,39.0,31.0,-100.00,SSE,154,6.0,15.0,73,0.00,,,0.19,,2013-11-22 06:12:00,
2013-11-21 23:42:00,37.0,34.0,-100.00,East,96,4.0,11.0,87,0.00,,,0.19,,2013-11-22 06:42:00,
2013-11-21 23:52:00,37.0,34.0,-100.00,East,96,4.0,11.0,87,0.00,,,0.19,,2013-11-22 06:52:00,